Time,TemperatureF,DewpointF,PressureIn,WindDirection,WindDirectionDegrees,WindSpeedMPH,WindSpeedGustMPH,Humidity,HourlyPrecipIn,Conditions,Clouds,dailyrainin,SoftwareType,DateUTC
2013-05-06 00:02:00,64.0,58.0,29.95,WSW,238,1.0,2.0,82,99.99,,,-99.99,,2013-05-06 04:02:00,
2013-05-06 00:12:00,64.0,58.0,29.95,WSW,238,1.0,2.0,82,99.99,,,-99.99,,2013-05-06 04:12:00,
2013-05-06 00:23:00,63.0,58.0,29.95,SW,236,1.0,3.0,83,99.99,,,-99.99,,2013-05-06 04:23:00,
2013-05-06 00:32:00,63.0,58.0,29.95,West,259,2.0,4.0,85,99.99,,,-99.99,,2013-05-06 04:32:00,
2013-05-06 00:42:00,63.0,58.0,29.95,West,259,2.0,4.0,85,99.99,,,-99.99,,2013-05-06 04:42:00,
2013-05-06 00:52:00,62.0,58.0,29.95,North,0,0.0,0.0,87,99.99,,,-99.99,,2013-05-06 04:52:00,
2013-05-06 01:02:00,61.0,58.0,29.94,North,0,0.0,0.0,91,99.99,,,-99.99,,2013-05-06 05:02:00,
2013-05-06 01:12:00,61.0,58.0,29.94,North,0,0.0,0.0,91,99.99,,,-99.99,,2013-05-06 05:12:00,
2013-05-06 01:22:00,60.0,58.0,29.94,North,0,0.0,0.0,92,99.99,,,-99.99,,2013-05-06 05:22:00,
2013-05-06 01:32:00,60.0,59.0,29.94,North,0,0.0,0.0,95,99.99,,,-99.99,,2013-05-06 05:32:00,
2013-05-06 01:42:00,60.0,59.0,29.94,North,0,0.0,0.0,95,99.99,,,-99.99,,2013-05-06 05:42:00,
2013-05-06 01:52:00,59.0,58.0,29.94,North,0,0.0,0.0,96,99.99,,,-99.99,,2013-05-06 05:52:00,
2013-05-06 02:02:00,60.0,59.0,29.93,North,0,0.0,0.0,98,99.99,,,-99.99,,2013-05-06 06:02:00,
2013-05-06 02:12:00,60.0,59.0,29.93,WSW,255,0.0,1.0,98,99.99,,,-99.99,,2013-05-06 06:12:00,
2013-05-06 02:21:00,60.0,59.0,29.93,WSW,255,0.0,1.0,98,99.99,,,-99.99,,2013-05-06 06:21:00,
2013-05-06 02:32:00,60.0,60.0,29.92,North,0,0.0,0.0,99,99.99,,,-99.99,,2013-05-06 06:32:00,
2013-05-06 02:42:00,60.0,60.0,29.92,North,0,0.0,0.0,99,99.99,,,-99.99,,2013-05-06 06:42:00,
2013-05-06 02:52:00,60.0,60.0,29.92,North,0,0.0,0.0,99,99.99,,,-99.99,,2013-05-06 06:52:00,
2013-05-06 03:01:00,60.0,60.0,29.92,North,0,0.0,0.0,100,99.99,,,-99.99,,2013-05-06 07:01:00,
2013-05-06 03:11:00,60.0,60.0,29.92,North,0,0.0,0.0,100,99.99,,,-99.99,,2013-05-06 07:11:00,
2013-05-06 03:22:00,59.0,59.0,29.92,North,0,0.0,0.0,100,99.99,,,-99.99,,2013-05-06 07:22:00,
2013-05-06 03:32:00,59.0,59.0,29.91,North,0,0.0,0.0,100,99.99,,,-99.99,,2013-05-06 07:32:00,
2013-05-06 03:42:00,59.0,59.0,29.91,North,0,0.0,0.0,100,99.99,,,-99.99,,2013-05-06 07:42:00,
2013-05-06 03:52:00,58.0,58.0,29.91,North,0,0.0,0.0,100,99.99,,,-99.99,,2013-05-06 07:52:00,
2013-05-06 04:02:00,60.0,60.0,29.91,WSW,255,0.0,1.0,100,99.99,,,-99.99,,2013-05-06 08:02:00,
2013-05-06 04:12:00,60.0,60.0,29.91,WSW,255,0.0,1.0,100,99.99,,,-99.99,,2013-05-06 08:12:00,
2013-05-06 04:22:00,59.0,59.0,29.91,North,0,0.0,0.0,100,99.99,,,-99.99,,2013-05-06 08:22:00,
2013-05-06 04:32:00,59.0,59.0,29.91,North,0,0.0,0.0,100,99.99,,,-99.99,,2013-05-06 08:32:00,
2013-05-06 04:42:00,59.0,59.0,29.91,North,0,0.0,0.0,100,99.99,,,-99.99,,2013-05-06 08:42:00,
2013-05-06 04:52:00,60.0,60.0,29.91,North,0,0.0,0.0,100,99.99,,,-99.99,,2013-05-06 08:52:00,
2013-05-06 05:01:00,60.0,60.0,29.91,WSW,242,1.0,2.0,100,99.99,,,-99.99,,2013-05-06 09:01:00,
2013-05-06 05:11:00,60.0,60.0,29.91,WSW,242,1.0,2.0,100,99.99,,,-99.99,,2013-05-06 09:11:00,
2013-05-06 05:22:00,61.0,61.0,29.92,SW,235,0.0,1.0,100,99.99,,,-99.99,,2013-05-06 09:22:00,
2013-05-06 05:33:00,62.0,62.0,29.92,WSW,246,2.0,3.0,100,99.99,,,-99.99,,2013-05-06 09:33:00,
2013-05-06 05:42:00,62.0,62.0,29.92,WSW,246,2.0,3.0,100,99.99,,,-99.99,,2013-05-06 09:42:00,
2013-05-06 05:53:00,62.0,62.0,29.92,West,259,0.0,1.0,100,99.99,,,-99.99,,2013-05-06 09:53:00,
2013-05-06 06:02:00,62.0,62.0,29.93,East,94,0.0,0.0,100,99.99,,,-99.99,,2013-05-06 10:02:00,
2013-05-06 06:12:00,62.0,62.0,29.93,East,94,0.0,0.0,100,99.99,,,-99.99,,2013-05-06 10:12:00,
2013-05-06 06:22:00,62.0,62.0,29.93,North,0,0.0,0.0,100,99.99,,,-99.99,,2013-05-06 10:22:00,
2013-05-06 06:33:00,62.0,62.0,29.94,ENE,73,0.0,1.0,100,99.99,,,-99.99,,2013-05-06 10:33:00,
2013-05-06 06:42:00,62.0,62.0,29.94,ENE,73,0.0,1.0,100,99.99,,,-99.99,,2013-05-06 10:42:00,
2013-05-06 06:52:00,62.0,62.0,29.94,North,0,0.0,0.0,100,99.99,,,-99.99,,2013-05-06 10:52:00,
2013-05-06 07:02:00,62.0,62.0,29.95,North,0,0.0,0.0,100,99.99,,,-99.99,,2013-05-06 11:02:00,
2013-05-06 07:12:00,62.0,62.0,29.95,North,0,0.0,0.0,100,99.99,,,-99.99,,2013-05-06 11:12:00,
2013-05-06 07:22:00,62.0,62.0,29.96,North,0,0.0,0.0,100,99.99,,,-99.99,,2013-05-06 11:22:00,
2013-05-06 07:32:00,63.0,63.0,29.96,North,0,0.0,0.0,100,99.99,,,-99.99,,2013-05-06 11:32:00,
2013-05-06 07:42:00,63.0,63.0,29.96,North,0,0.0,0.0,100,99.99,,,-99.99,,2013-05-06 11:42:00,
2013-05-06 07:52:00,63.0,63.0,29.97,North,0,0.0,0.0,100,99.99,,,-99.99,,2013-05-06 11:52:00,
2013-05-06 08:01:00,64.0,64.0,29.98,North,0,0.0,0.0,100,99.99,,,-99.99,,2013-05-06 12:01:00,
2013-05-06 08:12:00,64.0,64.0,29.98,North,0,0.0,0.0,100,99.99,,,-99.99,,2013-05-06 12:12:00,
2013-05-06 08:21:00,64.0,64.0,29.98,WNW,293,2.0,5.0,100,99.99,,,-99.99,,2013-05-06 12:21:00,
2013-05-06 08:32:00,66.0,66.0,29.98,NNW,328,5.0,8.0,99,99.99,,,-99.99,,2013-05-06 12:32:00,
2013-05-06 08:42:00,66.0,66.0,29.98,NNW,328,5.0,8.0,99,99.99,,,-99.99,,2013-05-06 12:42:00,
2013-05-06 08:52:00,68.0,62.0,29.98,NW,323,6.0,13.0,80,99.99,,,-99.99,,2013-05-06 12:52:00,
2013-05-06 09:01:00,70.0,59.0,29.98,NW,318,5.0,9.0,69,99.99,,,-99.99,,2013-05-06 13:01:00,
2013-05-06 09:11:00,70.0,59.0,29.98,NW,318,5.0,9.0,69,99.99,,,-99.99,,2013-05-06 13:11:00,
2013-05-06 09:21:00,70.0,58.0,29.99,NNW,342,5.0,8.0,65,99.99,,,-99.99,,2013-05-06 13:21:00,
2013-05-06 09:32:00,71.0,57.0,29.98,WNW,301,7.0,12.0,61,99.99,,,-99.99,,2013-05-06 13:32:00,
2013-05-06 09:42:00,71.0,57.0,29.98,WNW,301,7.0,12.0,61,99.99,,,-99.99,,2013-05-06 13:42:00,
2013-05-06 09:52:00,72.0,56.0,29.98,West,267,7.0,10.0,58,99.99,,,-99.99,,2013-05-06 13:52:00,
2013-05-06 10:01:00,72.0,55.0,29.99,NNW,335,6.0,11.0,56,99.99,,,-99.99,,2013-05-06 14:01:00,
2013-05-06 10:11:00,72.0,55.0,29.99,NW,304,7.0,12.0,56,99.99,,,-99.99,,2013-05-06 14:11:00,
2013-05-06 10:21:00,72.0,55.0,29.99,NW,304,7.0,12.0,56,99.99,,,-99.99,,2013-05-06 14:21:00,
2013-05-06 10:32:00,74.0,55.0,29.99,WSW,256,7.0,11.0,52,99.99,,,-99.99,,2013-05-06 14:32:00,
2013-05-06 10:42:00,74.0,54.0,30.00,NW,318,6.0,11.0,49,99.99,,,-99.99,,2013-05-06 14:42:00,
2013-05-06 10:51:00,74.0,54.0,30.00,NW,318,6.0,11.0,49,99.99,,,-99.99,,2013-05-06 14:51:00,
2013-05-06 11:01:00,74.0,56.0,30.00,NW,304,7.0,11.0,53,99.99,,,-99.99,,2013-05-06 15:01:00,
2013-05-06 11:11:00,74.0,56.0,30.00,NW,304,7.0,11.0,53,99.99,,,-99.99,,2013-05-06 15:11:00,
2013-05-06 11:21:00,75.0,55.0,30.00,WNW,288,6.0,9.0,50,99.99,,,-99.99,,2013-05-06 15:21:00,
2013-05-06 11:33:00,75.0,56.0,30.00,NNW,330,7.0,11.0,51,99.99,,,-99.99,,2013-05-06 15:33:00,
2013-05-06 11:42:00,75.0,56.0,30.00,NNW,330,7.0,11.0,51,99.99,,,-99.99,,2013-05-06 15:42:00,
2013-05-06 11:53:00,75.0,54.0,29.99,WNW,295,7.0,11.0,48,99.99,,,-99.99,,2013-05-06 15:53:00,
2013-05-06 12:03:00,76.0,53.0,29.99,WNW,302,8.0,15.0,45,99.99,,,-99.99,,2013-05-06 16:03:00,
2013-05-06 12:13:00,76.0,53.0,29.99,WNW,302,8.0,15.0,45,99.99,,,-99.99,,2013-05-06 16:13:00,
2013-05-06 12:23:00,76.0,53.0,29.99,WNW,287,9.0,15.0,45,99.99,,,-99.99,,2013-05-06 16:23:00,
2013-05-06 12:32:00,77.0,52.0,29.98,West,259,9.0,22.0,42,99.99,,,-99.99,,2013-05-06 16:32:00,
2013-05-06 12:42:00,77.0,52.0,29.98,West,259,9.0,22.0,42,99.99,,,-99.99,,2013-05-06 16:42:00,
2013-05-06 12:52:00,77.0,51.0,29.98,West,264,8.0,15.0,40,99.99,,,-99.99,,2013-05-06 16:52:00,
2013-05-06 13:03:00,78.0,50.0,29.98,WNW,297,8.0,14.0,37,99.99,,,-99.99,,2013-05-06 17:03:00,
2013-05-06 13:12:00,78.0,50.0,29.98,WNW,297,8.0,14.0,37,99.99,,,-99.99,,2013-05-06 17:12:00,
2013-05-06 13:23:00,79.0,50.0,29.98,NW,325,9.0,15.0,37,99.99,,,-99.99,,2013-05-06 17:23:00,
2013-05-06 13:31:00,79.0,50.0,29.97,NW,304,10.0,18.0,36,99.99,,,-99.99,,2013-05-06 17:31:00,
2013-05-06 13:42:00,79.0,50.0,29.97,NW,304,10.0,18.0,36,99.99,,,-99.99,,2013-05-06 17:42:00,
2013-05-06 13:52:00,79.0,49.0,29.96,NW,309,9.0,14.0,35,99.99,,,-99.99,,2013-05-06 17:52:00,
2013-05-06 14:01:00,79.0,47.0,29.96,West,274,9.0,14.0,32,99.99,,,-99.99,,2013-05-06 18:01:00,
2013-05-06 14:12:00,79.0,47.0,29.96,West,274,9.0,14.0,32,99.99,,,-99.99,,2013-05-06 18:12:00,
2013-05-06 14:22:00,79.0,47.0,29.96,WNW,297,11.0,17.0,32,99.99,,,-99.99,,2013-05-06 18:22:00,
2013-05-06 14:32:00,79.0,47.0,29.96,NW,307,10.0,17.0,33,99.99,,,-99.99,,2013-05-06 18:32:00,
2013-05-06 14:43:00,79.0,47.0,29.96,NW,307,10.0,17.0,33,99.99,,,-99.99,,2013-05-06 18:43:00,
2013-05-06 14:52:00,79.0,47.0,29.96,NW,305,11.0,20.0,33,99.99,,,-99.99,,2013-05-06 18:52:00,
2013-05-06 15:01:00,79.0,49.0,29.95,NNW,345,10.0,17.0,35,99.99,,,-99.99,,2013-05-06 19:01:00,
2013-05-06 15:11:00,79.0,49.0,29.95,NNW,345,10.0,17.0,35,99.99,,,-99.99,,2013-05-06 19:11:00,
2013-05-06 15:22:00,79.0,49.0,29.95,WNW,290,10.0,17.0,35,99.99,,,-99.99,,2013-05-06 19:22:00,
2013-05-06 15:32:00,79.0,48.0,29.94,WNW,294,10.0,19.0,34,99.99,,,-99.99,,2013-05-06 19:32:00,
2013-05-06 15:41:00,79.0,48.0,29.94,WNW,294,10.0,19.0,34,99.99,,,-99.99,,2013-05-06 19:41:00,
2013-05-06 15:52:00,79.0,49.0,29.93,NW,309,9.0,16.0,35,99.99,,,-99.99,,2013-05-06 19:52:00,
2013-05-06 16:02:00,79.0,49.0,29.93,West,280,10.0,16.0,35,99.99,,,-99.99,,2013-05-06 20:02:00,
2013-05-06 16:11:00,77.0,49.0,29.93,WSW,253,10.0,17.0,37,99.99,,,-99.99,,2013-05-06 20:11:00,
2013-05-06 16:21:00,77.0,49.0,29.93,WSW,253,10.0,17.0,37,99.99,,,-99.99,,2013-05-06 20:21:00,
2013-05-06 16:32:00,77.0,49.0,29.93,WNW,294,10.0,18.0,37,99.99,,,-99.99,,2013-05-06 20:32:00,
2013-05-06 16:42:00,77.0,49.0,29.93,WNW,294,10.0,18.0,37,99.99,,,-99.99,,2013-05-06 20:42:00,
2013-05-06 16:52:00,77.0,49.0,29.92,West,281,10.0,17.0,37,99.99,,,-99.99,,2013-05-06 20:52:00,
2013-05-06 17:01:00,77.0,48.0,29.92,NW,311,10.0,20.0,36,99.99,,,-99.99,,2013-05-06 21:01:00,
2013-05-06 17:11:00,77.0,48.0,29.92,NW,311,10.0,20.0,36,99.99,,,-99.99,,2013-05-06 21:11:00,
2013-05-06 17:21:00,77.0,49.0,29.93,WSW,255,9.0,16.0,38,99.99,,,-99.99,,2013-05-06 21:21:00,
2013-05-06 17:33:00,76.0,49.0,29.93,NW,326,9.0,15.0,39,99.99,,,-99.99,,2013-05-06 21:33:00,
2013-05-06 17:43:00,76.0,49.0,29.93,NW,326,9.0,15.0,39,99.99,,,-99.99,,2013-05-06 21:43:00,
2013-05-06 17:53:00,76.0,-23.0,29.94,SW,232,9.0,17.0,0,99.99,,,-99.99,,2013-05-06 21:53:00,
2013-05-06 18:03:00,75.0,48.0,29.93,NW,307,11.0,18.0,38,99.99,,,-99.99,,2013-05-06 22:03:00,
2013-05-06 18:12:00,75.0,48.0,29.93,NW,307,11.0,18.0,38,99.99,,,-99.99,,2013-05-06 22:12:00,
2013-05-06 18:22:00,75.0,48.0,29.93,WNW,295,9.0,15.0,38,99.99,,,-99.99,,2013-05-06 22:22:00,
2013-05-06 18:33:00,74.0,48.0,29.93,West,274,8.0,14.0,40,99.99,,,-99.99,,2013-05-06 22:33:00,
2013-05-06 18:45:00,74.0,48.0,29.93,West,274,8.0,14.0,40,99.99,,,-99.99,,2013-05-06 22:45:00,
2013-05-06 18:52:00,74.0,50.0,29.93,WSW,246,9.0,15.0,43,99.99,,,-99.99,,2013-05-06 22:52:00,
2013-05-06 19:03:00,74.0,50.0,29.93,West,280,7.0,13.0,43,99.99,,,-99.99,,2013-05-06 23:03:00,
2013-05-06 19:12:00,74.0,50.0,29.93,West,280,7.0,13.0,43,99.99,,,-99.99,,2013-05-06 23:12:00,
2013-05-06 19:22:00,72.0,48.0,29.93,NW,322,9.0,14.0,43,99.99,,,-99.99,,2013-05-06 23:22:00,
2013-05-06 19:32:00,72.0,49.0,29.94,West,278,8.0,15.0,44,99.99,,,-99.99,,2013-05-06 23:32:00,
2013-05-06 19:42:00,72.0,49.0,29.94,West,278,8.0,15.0,44,99.99,,,-99.99,,2013-05-06 23:42:00,
2013-05-06 19:52:00,71.0,49.0,29.94,NW,318,6.0,12.0,45,99.99,,,-99.99,,2013-05-06 23:52:00,
2013-05-06 20:01:00,71.0,49.0,29.95,WNW,301,7.0,12.0,46,99.99,,,-99.99,,2013-05-07 00:01:00,
2013-05-06 20:11:00,71.0,49.0,29.95,WNW,301,7.0,12.0,46,99.99,,,-99.99,,2013-05-07 00:11:00,
2013-05-06 20:21:00,70.0,49.0,29.95,WNW,291,8.0,12.0,48,99.99,,,-99.99,,2013-05-07 00:21:00,
2013-05-06 20:32:00,69.0,49.0,29.95,WNW,301,7.0,11.0,49,99.99,,,-99.99,,2013-05-07 00:32:00,
2013-05-06 20:42:00,69.0,49.0,29.95,WNW,301,7.0,11.0,49,99.99,,,-99.99,,2013-05-07 00:42:00,
2013-05-06 20:51:00,69.0,50.0,29.96,WNW,301,7.0,11.0,51,99.99,,,-99.99,,2013-05-07 00:51:00,
2013-05-06 21:01:00,68.0,50.0,29.96,WNW,301,6.0,10.0,53,99.99,,,-99.99,,2013-05-07 01:01:00,
2013-05-06 21:11:00,68.0,50.0,29.96,WNW,301,6.0,10.0,53,99.99,,,-99.99,,2013-05-07 01:11:00,
2013-05-06 21:21:00,68.0,52.0,29.97,NW,318,6.0,9.0,56,99.99,,,-99.99,,2013-05-07 01:21:00,
2013-05-06 21:32:00,67.0,51.0,29.98,NW,325,5.0,8.0,57,99.99,,,-99.99,,2013-05-07 01:32:00,
2013-05-06 21:42:00,67.0,51.0,29.98,NW,325,5.0,8.0,57,99.99,,,-99.99,,2013-05-07 01:42:00,
2013-05-06 21:53:00,66.0,51.0,29.98,NNW,336,5.0,8.0,58,99.99,,,-99.99,,2013-05-07 01:53:00,
2013-05-06 22:02:00,66.0,52.0,29.99,NW,304,4.0,8.0,60,99.99,,,-99.99,,2013-05-07 02:02:00,
2013-05-06 22:11:00,66.0,52.0,29.99,NW,304,4.0,8.0,60,99.99,,,-99.99,,2013-05-07 02:11:00,
2013-05-06 22:21:00,66.0,52.0,29.99,WNW,302,3.0,5.0,61,99.99,,,-99.99,,2013-05-07 02:21:00,
2013-05-06 22:32:00,64.0,51.0,30.00,NW,307,1.0,3.0,63,99.99,,,-99.99,,2013-05-07 02:32:00,
2013-05-06 22:42:00,64.0,51.0,30.00,NW,307,1.0,3.0,63,99.99,,,-99.99,,2013-05-07 02:42:00,
2013-05-06 22:52:00,64.0,52.0,30.01,West,281,1.0,3.0,65,99.99,,,-99.99,,2013-05-07 02:52:00,
2013-05-06 23:01:00,64.0,53.0,30.01,NNW,347,2.0,5.0,67,99.99,,,-99.99,,2013-05-07 03:01:00,
2013-05-06 23:11:00,64.0,53.0,30.01,NNW,347,2.0,5.0,67,99.99,,,-99.99,,2013-05-07 03:11:00,
2013-05-06 23:22:00,63.0,53.0,30.01,NNW,333,1.0,3.0,70,99.99,,,-99.99,,2013-05-07 03:22:00,
2013-05-06 23:32:00,62.0,53.0,30.01,NW,325,2.0,5.0,72,99.99,,,-99.99,,2013-05-07 03:32:00,
2013-05-06 23:42:00,62.0,53.0,30.01,NW,325,2.0,5.0,72,99.99,,,-99.99,,2013-05-07 03:42:00,
2013-05-06 23:53:00,62.0,53.0,30.02,North,352,1.0,2.0,73,99.99,,,-99.99,,2013-05-07 03:53:00,